| time (UTC) | temp C | wind direction | speed KPH | gust KPH | rain 1hr cm | rain 24hr cm | rain mn cm | humidity % | barometer mb |
| 20260902123324 | 21 | 178 | 3.2 | 4.8 | 0.00 | 0.00 | 0.00 | 95 | 1018.8 |
| 20260902122822 | 21 | 171 | 1.6 | 1.6 | 0.00 | 0.00 | 0.00 | 95 | 1018.8 |
| 20260902122318 | 21 | 153 | 0.0 | 0.0 | 0.00 | 0.00 | 0.00 | 95 | 1018.8 |
| 20260902121818 | 21 | 103 | 4.8 | 4.8 | 0.00 | 0.00 | 0.00 | 95 | 1018.7 |
| 20260902121313 | 21 | 176 | 3.2 | 3.2 | 0.00 | 0.00 | 0.00 | 95 | 1018.6 |
| 20260902120809 | 21 | 152 | 1.6 | 3.2 | 0.00 | 0.00 | 0.00 | 95 | 1018.6 |
| 20260902120305 | 21 | 127 | 1.6 | 1.6 | 0.00 | 0.00 | 0.00 | 95 | 1018.7 |
| 20260902115759 | 21 | 140 | 1.6 | 3.2 | 0.00 | 0.00 | 0.00 | 95 | 1018.5 |
| 20260902115255 | 21 | 111 | 6.4 | 9.7 | 0.00 | 0.00 | 0.00 | 95 | 1018.5 |
| 20260902114751 | 21 | 118 | 4.8 | 8.0 | 0.00 | 0.00 | 0.00 | 95 | 1018.7 |
| 20260902114248 | 21 | 113 | 6.4 | 9.7 | 0.00 | 0.00 | 0.00 | 95 | 1018.4 |
| 20260902113742 | 21 | 124 | 4.8 | 4.8 | 0.00 | 0.00 | 0.00 | 95 | 1018.4 |
| 20260902113237 | 21 | 138 | 3.2 | 3.2 | 0.00 | 0.00 | 0.00 | 95 | 1018.4 |
| 20260902112736 | 21 | 141 | 1.6 | 3.2 | 0.00 | 0.00 | 0.00 | 95 | 1018.6 |
| 20260902112234 | 21 | 119 | 3.2 | 3.2 | 0.00 | 0.00 | 0.00 | 95 | 1018.2 |
| 20260902111729 | 21 | 115 | 3.2 | 3.2 | 0.00 | 0.00 | 0.00 | 95 | 1018.5 |
| 20260902111225 | 21 | 130 | 0.0 | 0.0 | 0.00 | 0.00 | 0.00 | 95 | 1018.3 |
| 20260902110721 | 21 | 118 | 4.8 | 4.8 | 0.00 | 0.00 | 0.00 | 95 | 1018.3 |
| 20260902110217 | 21 | 142 | 1.6 | 3.2 | 0.00 | 0.00 | 0.00 | 95 | 1018.3 |
| 20260902105716 | 21 | 112 | 3.2 | 3.2 | 0.00 | 0.00 | 0.00 | 95 | 1018.1 |
| 20260902105211 | 21 | 119 | 1.6 | 3.2 | 0.00 | 0.00 | 0.00 | 95 | 1018.3 |
| 20260902104707 | 21 | 146 | 0.0 | 0.0 | 0.00 | 0.00 | 0.00 | 95 | 1018.4 |
| 20260902104203 | 21 | 129 | 0.0 | 0.0 | 0.00 | 0.00 | 0.00 | 95 | 1018.3 |
| 20260902103701 | 21 | 128 | 0.0 | 0.0 | 0.00 | 0.00 | 0.00 | 95 | 1018.5 |
| 20260902103157 | 21 | 152 | 0.0 | 0.0 | 0.00 | 0.00 | 0.00 | 95 | 1018.8 |
| 20260902102653 | 21 | 142 | 0.0 | 0.0 | 0.00 | 0.00 | 0.00 | 95 | 1018.5 |
| 20260902102150 | 21 | 137 | 0.0 | 0.0 | 0.00 | 0.00 | 0.00 | 95 | 1018.7 |
| 20260902101645 | 21 | 153 | 0.0 | 0.0 | 0.00 | 0.00 | 0.00 | 95 | 1018.7 |
| 20260902101144 | 21 | 97 | 3.2 | 3.2 | 0.00 | 0.00 | 0.00 | 95 | 1018.5 |
| 20260902100639 | 21 | 149 | 0.0 | 0.0 | 0.00 | 0.00 | 0.00 | 95 | 1018.5 |
| 20260902100134 | 21 | 167 | 0.0 | 0.0 | 0.00 | 0.00 | 0.00 | 95 | 1018.7 |
| 20260902095633 | 21 | 133 | 0.0 | 0.0 | 0.00 | 0.00 | 0.00 | 95 | 1018.6 |
| 20260902095133 | 21 | 159 | 0.0 | 0.0 | 0.00 | 0.00 | 0.00 | 95 | 1018.7 |
| 20260902094627 | 21 | 146 | 0.0 | 0.0 | 0.00 | 0.00 | 0.00 | 95 | 1018.5 |
| 20260902094124 | 20 | 161 | 0.0 | 0.0 | 0.00 | 0.00 | 0.00 | 95 | 1018.5 |
| 20260902093618 | 20 | 160 | 0.0 | 0.0 | 0.00 | 0.00 | 0.00 | 95 | 1018.7 |
| 20260902093112 | 20 | 154 | 0.0 | 0.0 | 0.00 | 0.00 | 0.00 | 95 | 1018.5 |
| 20260902092606 | 20 | 160 | 0.0 | 0.0 | 0.00 | 0.00 | 0.00 | 95 | 1018.5 |
| 20260902092101 | 20 | 151 | 0.0 | 0.0 | 0.00 | 0.00 | 0.00 | 95 | 1018.6 |
| 20260902091557 | 20 | 151 | 0.0 | 0.0 | 0.00 | 0.00 | 0.00 | 95 | 1018.7 |
| 20260902091052 | 20 | 152 | 0.0 | 0.0 | 0.00 | 0.00 | 0.00 | 95 | 1018.5 |
| 20260902090548 | 20 | 152 | 0.0 | 0.0 | 0.00 | 0.00 | 0.00 | 95 | 1018.4 |
| 20260902090047 | 20 | 157 | 0.0 | 0.0 | 0.00 | 0.00 | 0.00 | 95 | 1018.5 |
| 20260902085541 | 20 | 157 | 0.0 | 0.0 | 0.00 | 0.00 | 0.00 | 95 | 1018.7 |
| 20260902085037 | 20 | 157 | 0.0 | 0.0 | 0.00 | 0.00 | 0.00 | 95 | 1018.6 |
| 20260902084534 | 20 | 160 | 0.0 | 0.0 | 0.00 | 0.00 | 0.00 | 95 | 1018.7 |
| 20260902084029 | 20 | 155 | 0.0 | 0.0 | 0.00 | 0.00 | 0.00 | 95 | 1018.7 |
| 20260902083519 | 20 | 141 | 0.0 | 0.0 | 0.00 | 0.00 | 0.00 | 95 | 1018.7 |
| 20260902083013 | 20 | 156 | 0.0 | 0.0 | 0.00 | 0.00 | 0.00 | 95 | 1018.6 |
| 20260902082509 | 20 | 140 | 0.0 | 0.0 | 0.00 | 0.00 | 0.00 | 95 | 1018.4 |
| 20260902082005 | 20 | 152 | 0.0 | 0.0 | 0.00 | 0.00 | 0.00 | 95 | 1018.5 |
| 20260902081502 | 20 | 130 | 1.6 | 1.6 | 0.00 | 0.00 | 0.00 | 95 | 1018.5 |
| 20260902081001 | 20 | 146 | 0.0 | 0.0 | 0.00 | 0.00 | 0.00 | 95 | 1018.5 |
| 20260902080457 | 20 | 152 | 0.0 | 0.0 | 0.00 | 0.00 | 0.00 | 95 | 1018.4 |
| 20260902075956 | 20 | 119 | 1.6 | 3.2 | 0.00 | 0.00 | 0.00 | 95 | 1018.4 |
| 20260902075453 | 20 | 127 | 1.6 | 1.6 | 0.00 | 0.00 | 0.00 | 95 | 1018.3 |
| 20260902074949 | 20 | 142 | 0.0 | 1.6 | 0.00 | 0.00 | 0.00 | 95 | 1018.4 |
| 20260902074444 | 20 | 138 | 0.0 | 0.0 | 0.00 | 0.00 | 0.00 | 95 | 1018.2 |
| 20260902073938 | 20 | 144 | 1.6 | 3.2 | 0.00 | 0.00 | 0.00 | 95 | 1018.4 |
| 20260902073434 | 20 | 141 | 0.0 | 0.0 | 0.00 | 0.00 | 0.00 | 95 | 1018.4 |
| 20260902072930 | 20 | 124 | 0.0 | 0.0 | 0.00 | 0.00 | 0.00 | 95 | 1018.4 |
| 20260902072426 | 20 | 137 | 0.0 | 0.0 | 0.00 | 0.00 | 0.00 | 95 | 1018.3 |
| 20260902071922 | 20 | 144 | 1.6 | 3.2 | 0.00 | 0.00 | 0.00 | 95 | 1018.3 |
| 20260902071421 | 20 | 162 | 0.0 | 0.0 | 0.00 | 0.00 | 0.00 | 95 | 1018.2 |
| 20260902070918 | 20 | 142 | 0.0 | 0.0 | 0.00 | 0.00 | 0.00 | 95 | 1018.0 |
| 20260902070414 | 20 | 131 | 1.6 | 3.2 | 0.00 | 0.00 | 0.00 | 95 | 1018.1 |
| 20260902065912 | 20 | 133 | 0.0 | 0.0 | 0.00 | 0.00 | 0.00 | 95 | 1018.1 |
| 20260902065408 | 20 | 157 | 0.0 | 0.0 | 0.00 | 0.00 | 0.00 | 95 | 1018.4 |
| 20260902064903 | 20 | 156 | 0.0 | 0.0 | 0.00 | 0.00 | 0.00 | 95 | 1018.7 |
| 20260902064358 | 20 | 150 | 0.0 | 0.0 | 0.00 | 0.00 | 0.00 | 95 | 1018.5 |
| 20260902063854 | 20 | 150 | 0.0 | 0.0 | 0.00 | 0.00 | 0.00 | 95 | 1018.7 |
| 20260902063349 | 20 | 147 | 0.0 | 0.0 | 0.00 | 0.00 | 0.00 | 95 | 1018.3 |
| 20260902062848 | 20 | 164 | 0.0 | 0.0 | 0.00 | 0.00 | 0.00 | 95 | 1018.6 |
| 20260902062343 | 20 | 166 | 0.0 | 0.0 | 0.00 | 0.00 | 0.00 | 95 | 1018.5 |
| 20260902061842 | 20 | 166 | 0.0 | 0.0 | 0.00 | 0.00 | 0.00 | 95 | 1018.7 |
| 20260902061338 | 20 | 167 | 0.0 | 0.0 | 0.00 | 0.00 | 0.00 | 95 | 1018.5 |
| 20260902060834 | 20 | 167 | 0.0 | 0.0 | 0.00 | 0.00 | 0.00 | 95 | 1018.6 |
| 20260902060329 | 20 | 167 | 0.0 | 0.0 | 0.00 | 0.00 | 0.00 | 95 | 1018.7 |
| 20260902055825 | 20 | 167 | 0.0 | 0.0 | 0.00 | 0.00 | 0.00 | 95 | 1018.7 |
| 20260902055321 | 21 | 166 | 0.0 | 0.0 | 0.00 | 0.00 | 0.00 | 95 | 1018.5 |
| 20260902054816 | 21 | 152 | 0.0 | 0.0 | 0.00 | 0.00 | 0.00 | 95 | 1018.5 |
| 20260902054312 | 21 | 151 | 0.0 | 0.0 | 0.00 | 0.00 | 0.00 | 95 | 1018.3 |
| 20260902053807 | 21 | 140 | 0.0 | 0.0 | 0.00 | 0.00 | 0.00 | 95 | 1018.5 |
| 20260902053301 | 20 | 136 | 0.0 | 0.0 | 0.00 | 0.00 | 0.00 | 95 | 1018.5 |
| 20260902052800 | 20 | 144 | 0.0 | 0.0 | 0.00 | 0.00 | 0.00 | 95 | 1018.6 |
| 20260902052255 | 20 | 158 | 0.0 | 0.0 | 0.00 | 0.00 | 0.00 | 95 | 1018.7 |
| 20260902051749 | 20 | 129 | 0.0 | 0.0 | 0.00 | 0.00 | 0.00 | 95 | 1018.3 |
| 20260902051244 | 20 | 155 | 0.0 | 0.0 | 0.00 | 0.00 | 0.00 | 95 | 1018.4 |
| 20260902050739 | 20 | 156 | 0.0 | 0.0 | 0.00 | 0.00 | 0.00 | 95 | 1018.5 |
| 20260902050228 | 20 | 155 | 0.0 | 0.0 | 0.00 | 0.00 | 0.00 | 95 | 1018.3 |
| 20260902045728 | 20 | 154 | 0.0 | 0.0 | 0.00 | 0.00 | 0.00 | 95 | 1018.3 |
| 20260902045224 | 21 | 153 | 0.0 | 0.0 | 0.00 | 0.00 | 0.00 | 95 | 1018.2 |
| 20260902044720 | 21 | 153 | 0.0 | 0.0 | 0.00 | 0.00 | 0.00 | 95 | 1018.2 |
| 20260902044215 | 21 | 153 | 0.0 | 0.0 | 0.00 | 0.00 | 0.00 | 95 | 1018.2 |
| 20260902043710 | 21 | 151 | 0.0 | 0.0 | 0.00 | 0.00 | 0.00 | 95 | 1018.1 |
| 20260902043205 | 21 | 149 | 0.0 | 0.0 | 0.00 | 0.00 | 0.00 | 95 | 1018.3 |
| 20260902042659 | 21 | 149 | 0.0 | 0.0 | 0.00 | 0.00 | 0.00 | 95 | 1018.0 |
| 20260902042154 | 21 | 156 | 0.0 | 0.0 | 0.00 | 0.00 | 0.00 | 95 | 1017.8 |
| 20260902041654 | 21 | 156 | 0.0 | 0.0 | 0.00 | 0.00 | 0.00 | 95 | 1018.0 |
| 20260902041148 | 21 | 156 | 0.0 | 0.0 | 0.00 | 0.00 | 0.00 | 95 | 1018.0 |
| 20260902040642 | 21 | 156 | 0.0 | 0.0 | 0.00 | 0.00 | 0.00 | 95 | 1017.7 |
| 20260902040138 | 21 | 156 | 0.0 | 0.0 | 0.00 | 0.00 | 0.00 | 95 | 1017.9 |
| 20260902035636 | 21 | 181 | 0.0 | 0.0 | 0.00 | 1.09 | 1.09 | 95 | 1017.9 |
| 20260902035132 | 21 | 183 | 0.0 | 0.0 | 0.00 | 1.09 | 1.09 | 95 | 1018.0 |
| 20260902034631 | 21 | 183 | 0.0 | 0.0 | 0.00 | 1.09 | 1.09 | 95 | 1017.7 |
| 20260902034130 | 21 | 183 | 0.0 | 0.0 | 0.00 | 1.09 | 1.09 | 95 | 1017.6 |
| 20260902033630 | 21 | 182 | 0.0 | 0.0 | 0.00 | 1.09 | 1.09 | 95 | 1017.8 |
| 20260902033125 | 21 | 167 | 0.0 | 0.0 | 0.00 | 1.09 | 1.09 | 95 | 1017.7 |
| 20260902032623 | 21 | 168 | 0.0 | 0.0 | 0.00 | 1.09 | 1.09 | 95 | 1017.6 |
| 20260902032118 | 21 | 162 | 0.0 | 0.0 | 0.00 | 1.09 | 1.09 | 95 | 1017.6 |
| 20260902031613 | 21 | 138 | 0.0 | 0.0 | 0.00 | 1.09 | 1.09 | 95 | 1017.8 |
| 20260902031110 | 21 | 146 | 0.0 | 0.0 | 0.00 | 1.09 | 1.09 | 95 | 1017.8 |
| 20260902030609 | 21 | 147 | 0.0 | 0.0 | 0.00 | 1.09 | 1.09 | 95 | 1017.9 |
| 20260902030103 | 21 | 147 | 0.0 | 0.0 | 0.00 | 1.09 | 1.09 | 95 | 1017.9 |
| 20260902025558 | 21 | 147 | 0.0 | 0.0 | 0.00 | 1.09 | 1.09 | 95 | 1017.8 |
| 20260902025053 | 21 | 148 | 0.0 | 0.0 | 0.00 | 1.09 | 1.09 | 95 | 1018.0 |
| 20260902024549 | 21 | 149 | 0.0 | 0.0 | 0.00 | 1.09 | 1.09 | 95 | 1017.7 |
| 20260902024048 | 21 | 120 | 0.0 | 0.0 | 0.00 | 1.09 | 1.09 | 95 | 1017.8 |
| 20260902023544 | 21 | 154 | 0.0 | 0.0 | 0.00 | 1.09 | 1.09 | 95 | 1018.0 |
| 20260902023039 | 21 | 158 | 0.0 | 0.0 | 0.00 | 1.09 | 1.09 | 95 | 1017.8 |
| 20260902022539 | 21 | 158 | 0.0 | 0.0 | 0.00 | 1.09 | 1.09 | 95 | 1017.9 |
| 20260902022035 | 21 | 158 | 0.0 | 0.0 | 0.00 | 1.09 | 1.09 | 95 | 1017.7 |
| 20260902021530 | 21 | 152 | 0.0 | 0.0 | 0.00 | 1.09 | 1.09 | 95 | 1017.8 |
| 20260902021031 | 21 | 146 | 0.0 | 0.0 | 0.00 | 1.09 | 1.09 | 95 | 1017.7 |
| 20260902020526 | 21 | 144 | 0.0 | 0.0 | 0.00 | 1.09 | 1.09 | 95 | 1017.5 |
| 20260902020022 | 21 | 135 | 0.0 | 0.0 | 0.00 | 1.09 | 1.09 | 95 | 1017.6 |
| 20260902015518 | 21 | 136 | 0.0 | 0.0 | 0.00 | 1.09 | 1.09 | 95 | 1017.5 |
| 20260902015013 | 21 | 136 | 0.0 | 0.0 | 0.00 | 1.09 | 1.09 | 95 | 1017.8 |
| 20260902014510 | 21 | 136 | 0.0 | 0.0 | 0.00 | 1.09 | 1.09 | 95 | 1017.7 |
| 20260902014004 | 21 | 137 | 0.0 | 0.0 | 0.00 | 1.09 | 1.09 | 95 | 1017.5 |
| 20260902013458 | 21 | 136 | 0.0 | 0.0 | 0.00 | 1.09 | 1.09 | 95 | 1017.3 |
| 20260902012953 | 21 | 136 | 0.0 | 0.0 | 0.00 | 1.09 | 1.09 | 95 | 1017.3 |
| 20260902012444 | 21 | 136 | 0.0 | 0.0 | 0.00 | 1.09 | 1.09 | 95 | 1017.3 |
| 20260902011939 | 21 | 137 | 0.0 | 0.0 | 0.00 | 1.09 | 1.09 | 95 | 1017.5 |
| 20260902011435 | 22 | 137 | 0.0 | 0.0 | 0.00 | 1.09 | 1.09 | 95 | 1017.2 |
| 20260902010934 | 22 | 137 | 0.0 | 0.0 | 0.00 | 1.09 | 1.09 | 95 | 1017.1 |
| 20260902010429 | 22 | 137 | 0.0 | 0.0 | 0.00 | 1.09 | 1.09 | 95 | 1017.1 |
| 20260902005928 | 22 | 137 | 0.0 | 0.0 | 0.00 | 1.09 | 1.09 | 95 | 1017.0 |
| 20260902005427 | 22 | 137 | 0.0 | 0.0 | 0.00 | 1.09 | 1.09 | 95 | 1017.1 |
| 20260902004923 | 22 | 137 | 0.0 | 0.0 | 0.00 | 1.09 | 1.09 | 95 | 1016.8 |
| 20260902004422 | 22 | 137 | 0.0 | 0.0 | 0.00 | 1.09 | 1.09 | 95 | 1016.5 |
| 20260902003918 | 22 | 137 | 0.0 | 0.0 | 0.00 | 1.09 | 1.09 | 95 | 1016.9 |
| 20260902003413 | 22 | 137 | 0.0 | 0.0 | 0.00 | 1.09 | 1.09 | 95 | 1016.8 |
| 20260902002909 | 22 | 137 | 0.0 | 0.0 | 0.00 | 1.09 | 1.09 | 95 | 1016.4 |
| 20260902002408 | 22 | 136 | 0.0 | 0.0 | 0.00 | 1.09 | 1.09 | 95 | 1016.8 |
| 20260902001903 | 22 | 136 | 0.0 | 0.0 | 0.00 | 1.09 | 1.09 | 94 | 1016.2 |
| 20260902001358 | 22 | 144 | 0.0 | 0.0 | 0.00 | 1.09 | 1.09 | 94 | 1016.4 |
| 20260902000854 | 23 | 144 | 0.0 | 0.0 | 0.00 | 1.09 | 1.09 | 94 | 1016.2 |
| 20260902000353 | 23 | 143 | 0.0 | 1.6 | 0.00 | 1.09 | 1.09 | 94 | 1016.3 |
| 20260901235848 | 23 | 150 | 1.6 | 1.6 | 0.00 | 1.09 | 1.09 | 93 | 1016.3 |
| 20260901235343 | 23 | 154 | 0.0 | 0.0 | 0.00 | 1.09 | 1.09 | 93 | 1016.1 |
| 20260901234838 | 23 | 138 | 0.0 | 0.0 | 0.00 | 1.09 | 1.09 | 93 | 1016.1 |
| 20260901234332 | 23 | 131 | 1.6 | 1.6 | 0.00 | 1.09 | 1.09 | 92 | 1016.1 |
| 20260901233827 | 23 | 119 | 1.6 | 1.6 | 0.00 | 1.09 | 1.09 | 92 | 1016.4 |
| 20260901233323 | 23 | 147 | 0.0 | 1.6 | 0.00 | 1.09 | 1.09 | 91 | 1016.1 |
| 20260901232819 | 23 | 154 | 0.0 | 0.0 | 0.00 | 1.09 | 1.09 | 90 | 1016.2 |
| 20260901232313 | 23 | 160 | 0.0 | 0.0 | 0.00 | 1.09 | 1.09 | 90 | 1015.8 |
| 20260901231810 | 24 | 140 | 1.6 | 1.6 | 0.00 | 1.09 | 1.09 | 88 | 1015.7 |
| 20260901231306 | 25 | 142 | 0.0 | 0.0 | 0.00 | 1.09 | 1.09 | 88 | 1016.1 |
| 20260901230802 | 25 | 142 | 0.0 | 0.0 | 0.00 | 1.09 | 1.09 | 87 | 1015.8 |
| 20260901230301 | 25 | 141 | 0.0 | 1.6 | 0.00 | 1.09 | 1.09 | 86 | 1016.0 |
| 20260901225756 | 25 | 149 | 0.0 | 0.0 | 0.00 | 1.09 | 1.09 | 85 | 1016.1 |
| 20260901225250 | 25 | 147 | 1.6 | 1.6 | 0.00 | 1.09 | 1.09 | 85 | 1016.1 |
| 20260901224746 | 26 | 143 | 0.0 | 1.6 | 0.00 | 1.09 | 1.09 | 84 | 1016.2 |
| 20260901224242 | 26 | 237 | 1.6 | 1.6 | 0.00 | 1.09 | 1.09 | 84 | 1016.1 |
| 20260901223738 | 26 | 185 | 1.6 | 1.6 | 0.00 | 1.09 | 1.09 | 83 | 1015.9 |
| 20260901223238 | 26 | 125 | 1.6 | 1.6 | 0.00 | 1.09 | 1.09 | 83 | 1015.9 |
| 20260901222734 | 26 | 85 | 1.6 | 3.2 | 0.00 | 1.09 | 1.09 | 82 | 1015.8 |
| 20260901222230 | 26 | 132 | 1.6 | 1.6 | 0.00 | 1.09 | 1.09 | 82 | 1015.9 |
| 20260901221726 | 26 | 165 | 0.0 | 0.0 | 0.00 | 1.09 | 1.09 | 82 | 1015.9 |
| 20260901221222 | 26 | 188 | 1.6 | 3.2 | 0.00 | 1.09 | 1.09 | 82 | 1016.0 |
| 20260901220720 | 26 | 191 | 0.0 | 0.0 | 0.00 | 1.09 | 1.09 | 82 | 1016.0 |
| 20260901220215 | 26 | 216 | 3.2 | 3.2 | 0.00 | 1.09 | 1.09 | 81 | 1015.9 |
| 20260901215714 | 26 | 302 | 4.8 | 4.8 | 0.00 | 1.09 | 1.09 | 80 | 1016.2 |
| 20260901215208 | 27 | 231 | 3.2 | 3.2 | 0.00 | 1.09 | 1.09 | 80 | 1016.0 |
| 20260901214706 | 27 | 178 | 0.0 | 0.0 | 0.00 | 1.09 | 1.09 | 81 | 1016.0 |
| 20260901214200 | 27 | 149 | 0.0 | 0.0 | 0.00 | 1.09 | 1.09 | 81 | 1015.8 |
| 20260901213655 | 26 | 147 | 0.0 | 0.0 | 0.00 | 1.09 | 1.09 | 83 | 1015.8 |
| 20260901213150 | 26 | 136 | 0.0 | 0.0 | 0.00 | 1.09 | 1.09 | 84 | 1016.0 |
| 20260901212649 | 26 | 26 | 3.2 | 3.2 | 0.00 | 1.09 | 1.09 | 82 | 1015.9 |
| 20260901212145 | 26 | 193 | 0.0 | 0.0 | 0.00 | 1.09 | 1.09 | 83 | 1015.6 |
| 20260901211640 | 26 | 188 | 1.6 | 1.6 | 0.00 | 1.09 | 1.09 | 83 | 1015.7 |
| 20260901211136 | 26 | 129 | 1.6 | 1.6 | 0.00 | 1.09 | 1.09 | 83 | 1015.6 |
| 20260901210632 | 26 | 175 | 0.0 | 0.0 | 0.00 | 1.09 | 1.09 | 84 | 1015.7 |
| 20260901210127 | 26 | 193 | 0.0 | 1.6 | 0.00 | 1.09 | 1.09 | 84 | 1015.7 |
| 20260901205618 | 26 | 189 | 0.0 | 0.0 | 0.00 | 1.09 | 1.09 | 85 | 1015.8 |
| 20260901205117 | 26 | 125 | 0.0 | 1.6 | 0.00 | 1.09 | 1.09 | 85 | 1015.8 |
| 20260901204614 | 26 | 200 | 1.6 | 1.6 | 0.00 | 1.09 | 1.09 | 84 | 1015.7 |
| 20260901204114 | 26 | 168 | 0.0 | 0.0 | 0.00 | 1.09 | 1.09 | 85 | 1015.9 |
| 20260901203613 | 26 | 198 | 1.6 | 3.2 | 0.00 | 1.09 | 1.09 | 84 | 1015.7 |
| 20260901203108 | 26 | 231 | 3.2 | 3.2 | 0.00 | 1.09 | 1.09 | 85 | 1016.1 |
| 20260901202608 | 26 | 194 | 1.6 | 1.6 | 0.00 | 1.09 | 1.09 | 85 | 1015.7 |
| 20260901202104 | 26 | 169 | 0.0 | 0.0 | 0.00 | 1.09 | 1.09 | 86 | 1016.0 |
| 20260901201600 | 26 | 172 | 0.0 | 0.0 | 0.00 | 1.09 | 1.09 | 86 | 1016.0 |
| 20260901201059 | 26 | 169 | 0.0 | 0.0 | 0.00 | 1.09 | 1.09 | 87 | 1015.8 |
| 20260901200558 | 26 | 186 | 0.0 | 0.0 | 0.00 | 1.09 | 1.09 | 86 | 1015.9 |
| 20260901200054 | 26 | 226 | 3.2 | 3.2 | 0.00 | 1.09 | 1.09 | 86 | 1016.1 |
| 20260901195551 | 26 | 230 | 3.2 | 3.2 | 0.00 | 1.09 | 1.09 | 85 | 1016.0 |
| 20260901195046 | 26 | 185 | 0.0 | 0.0 | 0.00 | 1.09 | 1.09 | 85 | 1016.1 |
| 20260901194541 | 26 | 185 | 0.0 | 0.0 | 0.00 | 1.09 | 1.09 | 86 | 1016.1 |
| 20260901194037 | 26 | 184 | 0.0 | 0.0 | 0.00 | 1.09 | 1.09 | 86 | 1016.0 |
| 20260901193536 | 26 | 184 | 0.0 | 1.6 | 0.00 | 1.09 | 1.09 | 86 | 1016.0 |
| 20260901193031 | 26 | 169 | 0.0 | 0.0 | 0.00 | 1.09 | 1.09 | 86 | 1016.1 |
| 20260901192526 | 26 | 185 | 1.6 | 1.6 | 0.00 | 1.09 | 1.09 | 86 | 1016.0 |
| 20260901192022 | 26 | 208 | 1.6 | 1.6 | 0.00 | 1.09 | 1.09 | 86 | 1016.0 |
| 20260901191518 | 26 | 184 | 0.0 | 1.6 | 0.00 | 1.09 | 1.09 | 85 | 1016.0 |
| 20260901191014 | 26 | 195 | 0.0 | 0.0 | 0.00 | 1.09 | 1.09 | 86 | 1015.7 |
| 20260901190509 | 26 | 183 | 0.0 | 0.0 | 0.00 | 1.09 | 1.09 | 87 | 1016.1 |
| 20260901190007 | 26 | 183 | 0.0 | 0.0 | 0.00 | 1.09 | 1.09 | 86 | 1015.9 |
| 20260901185501 | 26 | 170 | 0.0 | 1.6 | 0.00 | 1.09 | 1.09 | 87 | 1015.8 |
| 20260901185000 | 25 | 169 | 0.0 | 0.0 | 0.00 | 1.09 | 1.09 | 87 | 1015.7 |
| 20260901184455 | 26 | 158 | 0.0 | 0.0 | 0.00 | 1.09 | 1.09 | 86 | 1015.7 |
| 20260901183951 | 25 | 183 | 0.0 | 0.0 | 0.00 | 1.09 | 1.09 | 87 | 1015.8 |
| 20260901183445 | 25 | 186 | 0.0 | 0.0 | 0.00 | 1.09 | 1.09 | 87 | 1015.9 |
| 20260901182940 | 25 | 183 | 0.0 | 0.0 | 0.00 | 1.09 | 1.09 | 87 | 1015.7 |
| 20260901182437 | 25 | 229 | 1.6 | 3.2 | 0.00 | 1.09 | 1.09 | 86 | 1015.8 |
| 20260901181931 | 25 | 243 | 4.8 | 4.8 | 0.00 | 1.09 | 1.09 | 85 | 1015.6 |
| 20260901181426 | 26 | 215 | 4.8 | 4.8 | 0.00 | 1.09 | 1.09 | 84 | 1015.9 |
| 20260901180925 | 25 | 174 | 0.0 | 0.0 | 0.00 | 1.09 | 1.09 | 86 | 1015.5 |
| 20260901180424 | 25 | 260 | 4.8 | 4.8 | 0.00 | 1.09 | 1.09 | 86 | 1015.5 |
| 20260901175922 | 25 | 206 | 0.0 | 0.0 | 0.00 | 1.09 | 1.09 | 86 | 1015.7 |
| 20260901175418 | 25 | 185 | 0.0 | 0.0 | 0.00 | 1.09 | 1.09 | 87 | 1015.6 |
| 20260901174913 | 25 | 278 | 3.2 | 3.2 | 0.00 | 1.09 | 1.09 | 87 | 1015.5 |
| 20260901174409 | 25 | 156 | 1.6 | 1.6 | 0.00 | 1.09 | 1.09 | 89 | 1015.4 |
| 20260901173904 | 25 | 166 | 0.0 | 0.0 | 0.00 | 1.09 | 1.09 | 88 | 1015.7 |
| 20260901173359 | 25 | 169 | 1.6 | 1.6 | 0.00 | 1.09 | 1.09 | 88 | 1015.5 |
| 20260901172855 | 25 | 264 | 6.4 | 8.0 | 0.00 | 1.09 | 1.09 | 88 | 1015.5 |
| 20260901172355 | 24 | 298 | 4.8 | 4.8 | 0.00 | 1.09 | 1.09 | 92 | 1015.5 |
| 20260901171853 | 23 | 251 | 3.2 | 3.2 | 0.00 | 1.09 | 1.09 | 95 | 1015.5 |
| 20260901171352 | 23 | 204 | 1.6 | 1.6 | 0.00 | 1.09 | 1.09 | 95 | 1015.7 |
| 20260901170850 | 22 | 162 | 0.0 | 0.0 | 0.00 | 1.09 | 1.09 | 95 | 1015.3 |
| 20260901170346 | 22 | 146 | 0.0 | 0.0 | 0.00 | 1.09 | 1.09 | 95 | 1015.7 |
| 20260901165840 | 22 | 144 | 0.0 | 0.0 | 0.00 | 1.09 | 1.09 | 95 | 1015.7 |
| 20260901165334 | 22 | 276 | 4.8 | 4.8 | 0.00 | 1.09 | 1.09 | 95 | 1015.6 |
| 20260901164831 | 22 | 174 | 1.6 | 3.2 | 0.00 | 1.09 | 1.09 | 95 | 1015.6 |
| 20260901164326 | 22 | 205 | 0.0 | 1.6 | 0.00 | 1.09 | 1.09 | 95 | 1015.6 |
| 20260901163826 | 22 | 151 | 1.6 | 1.6 | 0.00 | 1.09 | 1.09 | 95 | 1015.6 |
| 20260901163321 | 22 | 155 | 0.0 | 0.0 | 0.00 | 1.09 | 1.09 | 95 | 1015.5 |
| 20260901162816 | 22 | 161 | 0.0 | 0.0 | 0.00 | 1.09 | 1.09 | 95 | 1015.8 |
| 20260901162315 | 22 | 156 | 0.0 | 0.0 | 0.00 | 1.09 | 1.09 | 95 | 1016.0 |
| 20260901161814 | 22 | 162 | 0.0 | 0.0 | 0.00 | 1.09 | 1.09 | 95 | 1015.9 |
| 20260901161309 | 21 | 131 | 0.0 | 0.0 | 0.00 | 1.09 | 1.09 | 95 | 1015.9 |
| 20260901160804 | 21 | 138 | 0.0 | 0.0 | 0.00 | 1.09 | 1.09 | 95 | 1015.7 |
| 20260901160300 | 21 | 137 | 0.0 | 0.0 | 0.00 | 1.09 | 1.09 | 95 | 1015.9 |
| 20260901155759 | 21 | 131 | 0.0 | 0.0 | 0.00 | 1.09 | 1.09 | 95 | 1015.9 |
| 20260901155254 | 21 | 156 | 0.0 | 0.0 | 0.00 | 1.09 | 1.09 | 95 | 1015.8 |
| 20260901154749 | 21 | 175 | 0.0 | 0.0 | 0.00 | 1.09 | 1.09 | 95 | 1015.9 |
| 20260901154244 | 21 | 173 | 0.0 | 0.0 | 0.00 | 1.09 | 1.09 | 95 | 1015.9 |
| 20260901153740 | 21 | 164 | 0.0 | 0.0 | 0.00 | 1.09 | 1.09 | 95 | 1015.8 |
| 20260901153239 | 21 | 171 | 0.0 | 0.0 | 0.00 | 1.09 | 1.09 | 95 | 1015.9 |
| 20260901152738 | 21 | 147 | 0.0 | 0.0 | 0.00 | 1.09 | 1.09 | 95 | 1015.9 |
| 20260901152237 | 21 | 146 | 0.0 | 0.0 | 0.00 | 1.09 | 1.09 | 95 | 1016.1 |
| 20260901151733 | 21 | 138 | 0.0 | 0.0 | 0.00 | 1.09 | 1.09 | 95 | 1016.1 |
| 20260901151232 | 21 | 157 | 0.0 | 0.0 | 0.00 | 1.09 | 1.09 | 95 | 1016.2 |
| 20260901150726 | 21 | 157 | 0.0 | 0.0 | 0.00 | 1.09 | 1.09 | 95 | 1016.2 |
| 20260901150225 | 21 | 157 | 0.0 | 0.0 | 0.00 | 1.09 | 1.09 | 95 | 1016.0 |
| 20260901145723 | 21 | 165 | 0.0 | 0.0 | 0.00 | 1.09 | 1.09 | 95 | 1016.0 |
| 20260901145222 | 21 | 236 | 0.0 | 0.0 | 0.00 | 1.09 | 1.09 | 95 | 1016.2 |
| 20260901144718 | 21 | 150 | 0.0 | 0.0 | 0.00 | 1.09 | 1.09 | 95 | 1016.0 |
| 20260901144213 | 21 | 150 | 0.0 | 0.0 | 0.00 | 1.09 | 1.09 | 95 | 1016.0 |
| 20260901143708 | 21 | 172 | 0.0 | 0.0 | 0.00 | 1.09 | 1.09 | 95 | 1016.0 |
| 20260901143205 | 21 | 170 | 0.0 | 0.0 | 0.00 | 1.09 | 1.09 | 95 | 1015.8 |
| 20260901142701 | 20 | 142 | 1.6 | 3.2 | 0.00 | 1.09 | 1.09 | 95 | 1015.9 |
| 20260901142159 | 21 | 166 | 1.6 | 3.2 | 0.00 | 1.09 | 1.09 | 95 | 1015.9 |
| 20260901141654 | 21 | 173 | 0.0 | 0.0 | 0.00 | 1.09 | 1.09 | 95 | 1015.9 |
| 20260901141149 | 20 | 147 | 0.0 | 0.0 | 0.00 | 1.09 | 1.09 | 95 | 1015.6 |
| 20260901140648 | 20 | 159 | 0.0 | 0.0 | 0.00 | 1.09 | 1.09 | 95 | 1015.6 |
| 20260901140146 | 20 | 163 | 0.0 | 0.0 | 0.00 | 1.09 | 1.09 | 95 | 1015.9 |
| 20260901135642 | 20 | 137 | 0.0 | 0.0 | 0.00 | 1.09 | 1.09 | 95 | 1015.9 |
| 20260901135136 | 20 | 163 | 0.0 | 0.0 | 0.00 | 1.09 | 1.09 | 95 | 1016.0 |
| 20260901134633 | 20 | 126 | 1.6 | 1.6 | 0.00 | 1.09 | 1.09 | 95 | 1015.8 |
| 20260901134127 | 20 | 147 | 0.0 | 0.0 | 0.00 | 1.09 | 1.09 | 95 | 1015.9 |
| 20260901133627 | 20 | 127 | 0.0 | 1.6 | 0.00 | 1.09 | 1.09 | 95 | 1015.9 |
| 20260901133125 | 20 | 144 | 0.0 | 0.0 | 0.00 | 1.09 | 1.09 | 95 | 1016.1 |
| 20260901132620 | 20 | 148 | 0.0 | 0.0 | 0.00 | 1.09 | 1.09 | 95 | 1016.1 |
| 20260901132119 | 20 | 120 | 1.6 | 1.6 | 0.00 | 1.09 | 1.09 | 95 | 1016.3 |
| 20260901131620 | 20 | 166 | 0.0 | 0.0 | 0.00 | 1.09 | 1.09 | 95 | 1016.5 |
| 20260901131114 | 20 | 160 | 0.0 | 0.0 | 0.00 | 1.09 | 1.09 | 95 | 1016.0 |
| 20260901130610 | 20 | 141 | 0.0 | 1.6 | 0.00 | 1.09 | 1.09 | 95 | 1016.2 |
| 20260901130108 | 20 | 136 | 1.6 | 1.6 | 0.00 | 1.09 | 1.09 | 95 | 1016.3 |
| 20260901125606 | 20 | 134 | 0.0 | 0.0 | 0.00 | 1.09 | 1.09 | 95 | 1016.3 |
| 20260901125101 | 20 | 125 | 0.0 | 0.0 | 0.00 | 1.09 | 1.09 | 95 | 1016.2 |
| 20260901124556 | 20 | 135 | 0.0 | 1.6 | 0.00 | 1.09 | 1.09 | 95 | 1016.0 |
| 20260901124051 | 20 | 130 | 0.0 | 0.0 | 0.00 | 1.09 | 1.09 | 95 | 1016.2 |
| 20260901123546 | 19 | 119 | 1.6 | 1.6 | 0.00 | 1.09 | 1.09 | 95 | 1016.7 |